Wind_Speed
5 5 5 6 6 6 7 7 7 6 7 7 8 9 10 10 11 12 12 13 14 14 14 14 15 15 15 14 14 15 15 15 15 15 16 16 15 15 15 15 15 14 14 14
5 5 6 6 6 6 7 7 7 8 8 9 10 11 12 12 13 13 13 14 15 15 16 16 16 16 16 16 16 17 17 17 17 17 17 17 17 16 16 16 16 15 15 14
6 7 7 7 6 7 7 8 8 9 9 10 11 12 13 13 14 14 15 16 16 17 17 18 18 18 18 18 18 19 19 19 19 19 19 18 18 18 18 18 17 17 16 15
8 8 9 7 8 8 8 9 10 10 11 11 12 13 14 15 15 16 17 18 18 19 20 20 20 20 20 20 21 21 21 21 22 22 21 21 20 20 20 20 19 19 18 17
9 9 9 9 9 10 10 10 11 12 13 14 14 15 16 17 18 19 20 21 21 22 22 23 23 23 23 23 23 23 23 23 23 23 23 23 23 22 22 21 21 21 20 19
11 11 11 12 12 12 13 13 14 15 16 17 17 18 19 20 21 22 23 24 24 25 25 25 25 26 25 25 25 25 26 25 26 26 26 26 25 25 24 24 23 23 22 21
13 14 14 14 15 16 16 16 17 18 19 20 20 21 22 22 23 24 25 26 27 27 28 28 28 28 28 28 28 28 28 28 28 29 29 28 28 27 27 27 26 25 25 24
17 17 17 18 18 19 19 20 20 21 22 23 24 24 25 26 27 28 28 29 29 30 30 30 31 31 31 32 32 31 31 31 31 31 31 31 31 30 30 30 29 28 27 27
20 21 21 21 22 22 23 24 24 25 25 26 27 28 29 29 30 31 32 32 33 33 33 33 33 34 35 35 35 34 34 33 33 32 32 33 33 33 33 32 32 31 30 29
23 24 24 25 26 26 27 27 28 29 29 30 31 32 32 33 34 34 35 35 36 36 36 36 36 36 37 37 37 37 36 36 35 35 35 35 35 36 35 35 34 34 33 32
27 27 28 28 29 29 29 30 31 32 33 34 35 36 37 37 38 38 38 39 39 39 39 39 39 39 39 40 40 40 39 39 38 38 39 38 38 38 38 38 37 37 36 35
30 31 31 32 33 33 33 34 35 36 36 38 39 39 40 41 41 42 42 42 42 42 42 43 42 42 42 43 43 43 43 42 42 42 42 42 41 41 41 40 40 40 39 38
34 34 35 35 36 37 37 38 39 39 40 41 42 43 43 44 44 44 45 45 45 46 46 46 45 45 46 46 47 46 46 45 45 45 45 45 45 44 44 43 43 42 41 40
38 38 38 39 39 40 41 41 42 43 44 44 45 46 46 47 47 48 49 49 49 49 49 49 49 49 49 49 49 49 49 48 48 47 47 47 47 47 47 46 45 44 43 42
42 42 42 43 43 44 44 45 46 46 47 47 48 48 49 50 50 51 52 53 53 53 53 53 52 52 53 53 53 53 53 52 51 50 49 49 49 49 48 47 46 46 44 43
44 45 46 46 47 47 48 48 49 49 50 50 51 51 52 53 54 54 55 55 55 55 55 56 56 56 56 56 56 56 56 55 54 53 52 52 51 50 49 48 48 47 46 45
45 46 47 48 49 49 50 51 51 51 52 52 53 54 54 55 55 56 56 56 57 57 57 57 58 58 58 58 58 57 56 56 55 54 53 53 52 51 51 50 49 48 48 48
48 48 49 50 51 51 51 52 53 53 53 53 54 55 55 56 57 57 58 58 58 58 59 60 60 60 59 59 58 58 56 56 55 54 53 53 53 52 51 51 50 49 49 49
50 50 51 52 52 53 53 54 54 55 55 55 56 57 57 58 59 59 59 59 59 60 60 60 61 60 60 59 58 58 57 56 55 54 54 52 52 52 51 51 51 50 51 51
52 52 52 53 53 54 54 54 55 55 56 57 58 59 59 60 61 61 60 60 60 61 61 60 60 59 59 58 57 57 56 55 54 53 52 52 51 51 51 51 50 50 51 51
53 53 53 54 54 54 54 55 56 57 57 58 59 60 60 60 61 61 61 60 59 60 60 59 59 58 56 56 55 54 53 53 51 51 50 50 50 50 49 49 48 49 49 49
53 54 54 54 54 54 55 56 56 57 58 59 59 60 60 59 59 60 60 60 59 58 57 56 56 55 55 54 52 52 51 49 48 48 48 48 49 48 48 47 47 47 46 47
54 54 54 54 54 55 55 56 56 57 58 58 59 59 58 58 58 58 58 57 56 55 54 53 53 53 52 51 50 49 48 47 46 46 45 45 45 45 45 45 46 46 45 45
54 54 54 54 55 55 55 56 56 57 57 58 58 57 57 57 56 56 55 54 53 52 51 51 51 49 47 47 47 46 45 45 44 43 42 42 42 43 43 43 43 44 44 43
55 54 54 54 55 55 55 55 56 56 56 56 55 55 55 54 54 52 51 51 50 49 48 48 47 46 45 45 44 43 42 41 41 40 39 39 40 40 41 40 40 41 42 42
53 53 53 53 53 53 54 54 53 53 53 53 52 52 52 51 50 49 48 47 46 46 45 44 43 42 41 40 39 38 37 38 38 38 37 37 37 37 38 38 37 38 39 39
51 51 51 50 50 50 50 50 50 49 50 49 49 48 48 47 46 46 45 44 43 43 42 41 39 38 37 36 35 34 34 34 34 33 33 33 33 34 34 36 35 35 35 36
Wind_Direction
206 219 232 238 240 242 248 253 252 251 257 262 270 275 277 279 282 285 286 286 287 288 290 290 290 290 290 290 291 292 293 296 300 302 302 302 304 307 311 313 316 319 322 326
224 233 239 246 252 254 258 259 260 262 266 269 272 275 278 280 281 284 286 286 287 288 290 290 289 288 288 288 290 291 292 294 295 297 298 298 298 300 302 305 307 311 313 316
235 243 247 253 262 263 264 264 263 264 268 271 274 277 280 281 283 286 288 287 288 289 289 289 288 288 288 287 288 289 290 291 293 293 294 294 294 295 296 297 299 303 305 307
248 251 256 264 265 267 269 267 267 269 273 277 280 281 283 284 285 287 290 291 292 290 290 289 288 288 287 288 288 288 289 289 289 290 291 291 290 290 290 291 293 295 298 299
259 261 264 268 270 272 272 272 272 274 277 280 283 284 286 287 288 290 291 292 292 292 290 289 289 288 287 286 287 288 288 288 288 288 288 288 288 287 286 287 288 289 291 293
263 265 267 271 273 274 275 276 277 278 280 283 284 284 286 288 289 289 290 291 291 292 290 288 288 288 287 286 286 286 287 287 286 286 286 286 285 285 283 283 283 284 285 286
265 266 268 272 273 274 276 278 279 281 283 284 285 286 287 288 289 289 289 290 290 290 291 289 288 287 287 286 285 286 286 286 285 284 284 283 283 282 282 280 280 280 281 281
269 270 272 273 274 275 276 278 280 281 282 284 285 286 288 289 290 290 289 290 290 290 290 290 288 286 285 285 285 285 285 284 283 283 282 281 280 280 279 279 278 278 278 278
271 272 273 273 274 275 277 279 281 282 283 284 285 287 288 289 290 290 290 290 291 291 290 289 288 287 285 284 284 283 283 283 283 282 281 281 280 279 278 277 277 277 276 276
272 273 274 275 276 277 278 279 281 282 284 285 286 288 288 289 290 290 290 291 290 290 290 290 289 287 285 284 283 283 282 281 281 280 280 280 279 278 278 277 275 274 274 274
272 273 274 275 277 278 279 280 281 282 283 285 287 288 289 289 289 290 290 290 290 290 291 290 289 287 284 283 282 282 282 280 279 279 278 277 277 276 276 275 274 272 271 271
273 274 275 276 277 279 280 281 282 283 284 285 286 287 288 288 289 289 290 290 290 291 291 291 289 286 284 283 282 282 281 280 279 278 276 275 275 274 274 272 271 270 269 269
273 274 275 277 278 279 280 281 283 284 285 285 286 286 287 287 288 288 289 289 289 290 290 290 289 287 285 283 283 282 282 281 279 277 275 274 273 273 272 270 269 269 268 267
274 275 276 277 278 279 280 282 283 283 284 285 285 285 286 286 287 287 288 288 288 288 289 288 288 287 286 284 283 282 281 281 279 277 275 273 273 272 271 269 268 267 266 265
275 276 277 278 279 280 281 282 283 284 284 285 285 286 286 286 287 287 287 288 288 287 287 287 287 286 286 285 284 283 281 280 279 277 275 273 272 271 271 268 267 265 264 263
275 277 278 279 281 282 283 283 284 285 285 286 286 286 287 287 287 287 288 288 288 287 287 287 287 286 286 285 285 284 282 280 278 276 274 273 271 270 268 266 266 263 262 261
277 278 279 281 282 283 284 284 285 286 286 286 286 287 287 287 288 288 288 288 288 288 287 287 286 286 286 285 285 284 282 280 277 275 273 272 270 268 266 264 264 262 260 260
279 280 281 282 283 283 284 284 285 286 286 287 287 287 288 288 288 289 289 288 288 288 288 287 287 287 286 285 284 283 282 280 277 275 273 271 269 268 266 263 262 260 258 258
280 281 282 282 283 284 284 285 285 286 286 287 287 288 288 289 290 290 289 289 288 288 288 288 287 286 285 285 284 283 281 280 277 274 272 270 268 267 265 263 261 259 257 256
280 281 281 282 283 284 285 285 286 286 287 288 289 289 289 290 290 290 290 290 289 289 288 288 287 286 285 285 284 282 281 279 277 274 271 269 268 266 264 262 260 257 256 255
281 281 282 283 284 285 285 286 287 288 288 289 290 290 290 290 290 290 291 290 290 289 289 288 288 287 285 284 283 281 280 278 276 274 271 269 268 265 263 262 259 257 256 255
281 282 283 284 285 286 286 287 287 288 288 289 290 290 291 291 291 291 291 292 291 290 289 289 288 286 284 283 283 281 280 278 276 274 271 269 267 264 261 259 258 256 256 255
282 283 284 285 285 286 286 287 287 288 289 290 290 290 290 291 291 291 291 292 291 290 289 289 288 286 283 282 282 281 279 277 275 273 271 269 267 264 261 259 256 255 255 255
283 284 285 285 285 286 286 287 287 289 289 290 291 291 291 291 291 291 292 292 292 291 291 290 289 286 283 281 281 280 278 276 275 273 269 267 265 262 260 258 256 255 254 253
283 284 285 285 285 286 287 287 288 289 290 290 291 291 291 292 292 292 292 293 293 293 292 292 290 287 284 283 282 280 279 276 275 273 270 267 264 262 259 256 255 253 252 251
283 284 284 284 285 286 287 288 288 289 290 290 290 290 291 291 292 292 293 293 294 294 294 293 291 288 286 284 283 282 281 278 275 273 270 267 264 260 258 256 253 253 251 250
283 283 283 283 284 285 287 288 289 290 291 291 291 291 291 291 292 292 293 293 293 294 294 293 291 290 288 285 283 282 281 278 275 272 271 268 264 260 256 254 252 252 250 248
Height
5814 5815 5815 5816 5817 5817 5818 5819 5820 5821 5821 5821 5821 5821 5821 5820 5820 5819 5819 5818 5817 5816 5815 5814 5813 5813 5812 5811 5810 5810 5808 5807 5806 5804 5803 5802 5800 5798 5796 5794 5792 5790 5788 5785
5813 5813 5814 5814 5815 5816 5816 5817 5817 5818 5818 5818 5818 5818 5817 5817 5817 5816 5815 5814 5814 5813 5812 5811 5810 5809 5808 5807 5806 5805 5804 5803 5802 5800 5799 5798 5796 5795 5793 5791 5789 5787 5785 5783
5811 5811 5812 5813 5814 5814 5814 5814 5815 5815 5816 5815 5815 5815 5814 5814 5813 5812 5811 5810 5809 5808 5807 5806 5805 5804 5803 5803 5802 5801 5800 5799 5797 5796 5795 5793 5792 5790 5789 5787 5786 5784 5782 5780
5808 5810 5810 5813 5811 5811 5811 5812 5811 5812 5812 5811 5811 5811 5810 5809 5809 5808 5807 5806 5805 5803 5802 5801 5800 5799 5798 5797 5796 5795 5794 5793 5792 5791 5789 5788 5787 5785 5784 5783 5781 5780 5778 5776
5806 5806 5807 5808 5808 5807 5808 5808 5808 5808 5808 5807 5807 5806 5806 5805 5804 5803 5802 5801 5799 5798 5797 5795 5794 5793 5792 5791 5790 5789 5788 5787 5786 5784 5783 5782 5781 5780 5778 5777 5776 5774 5773 5772
5802 5802 5803 5805 5804 5803 5805 5804 5804 5803 5803 5802 5802 5801 5801 5799 5798 5797 5796 5794 5793 5791 5790 5789 5787 5786 5785 5784 5783 5782 5780 5779 5778 5777 5776 5775 5774 5773 5772 5770 5769 5768 5767 5766
5798 5798 5799 5800 5799 5799 5800 5800 5799 5798 5797 5797 5796 5796 5795 5793 5792 5791 5789 5788 5786 5784 5783 5781 5779 5778 5777 5776 5775 5773 5772 5771 5770 5769 5768 5766 5766 5765 5764 5763 5762 5761 5760 5760
5793 5794 5796 5794 5794 5794 5794 5793 5792 5792 5791 5790 5789 5788 5787 5786 5785 5783 5782 5780 5778 5776 5775 5773 5771 5769 5768 5767 5765 5764 5763 5761 5760 5759 5758 5757 5756 5756 5755 5754 5754 5753 5753 5752
5789 5790 5788 5788 5787 5787 5786 5786 5785 5785 5784 5783 5782 5781 5780 5778 5776 5775 5773 5771 5769 5767 5765 5763 5761 5760 5758 5757 5755 5754 5753 5751 5750 5749 5748 5747 5746 5745 5745 5744 5744 5744 5743 5743
5781 5781 5780 5780 5779 5779 5779 5778 5777 5776 5776 5774 5773 5772 5771 5769 5767 5765 5763 5761 5759 5757 5755 5753 5751 5748 5746 5745 5744 5743 5742 5741 5740 5739 5738 5736 5735 5735 5734 5733 5733 5733 5733 5733
5773 5773 5772 5771 5771 5770 5770 5769 5768 5767 5766 5765 5763 5762 5760 5758 5756 5754 5752 5750 5748 5745 5743 5741 5739 5736 5734 5732 5731 5730 5729 5728 5728 5727 5726 5725 5724 5723 5722 5722 5721 5721 5721 5721
5764 5764 5763 5763 5761 5761 5760 5759 5758 5757 5755 5754 5752 5750 5748 5746 5744 5742 5740 5737 5735 5733 5730 5728 5725 5723 5721 5719 5718 5717 5716 5715 5714 5713 5712 5711 5710 5710 5709 5709 5708 5708 5708 5708
5754 5753 5753 5752 5751 5750 5749 5748 5747 5745 5744 5742 5740 5738 5735 5733 5731 5729 5726 5724 5722 5719 5717 5714 5711 5709 5707 5705 5703 5702 5701 5700 5699 5698 5697 5696 5695 5695 5695 5695 5694 5694 5694 5695
5742 5741 5741 5740 5739 5738 5737 5736 5734 5733 5731 5728 5726 5724 5722 5720 5717 5715 5712 5709 5707 5704 5702 5699 5697 5694 5691 5689 5687 5686 5684 5683 5682 5681 5680 5679 5679 5678 5678 5678 5679 5680 5680 5680
5729 5729 5728 5727 5727 5725 5724 5722 5721 5719 5717 5714 5712 5709 5707 5705 5702 5699 5696 5693 5691 5688 5685 5683 5680 5678 5675 5672 5670 5668 5666 5665 5664 5663 5662 5662 5661 5661 5661 5661 5662 5664 5665 5666
5716 5715 5714 5713 5713 5711 5709 5708 5706 5704 5702 5699 5697 5694 5691 5689 5686 5683 5680 5676 5674 5671 5668 5665 5663 5660 5657 5654 5651 5649 5647 5645 5644 5643 5643 5643 5643 5643 5643 5644 5644 5646 5648 5650
5703 5702 5700 5699 5698 5696 5694 5692 5690 5688 5686 5683 5681 5678 5675 5672 5669 5667 5663 5660 5656 5653 5650 5646 5644 5641 5638 5635 5632 5629 5628 5626 5624 5623 5623 5623 5623 5624 5624 5625 5627 5629 5631 5633
5688 5687 5686 5684 5683 5681 5679 5677 5674 5672 5669 5667 5664 5661 5658 5655 5652 5649 5646 5642 5639 5636 5632 5627 5624 5621 5618 5615 5612 5610 5608 5606 5605 5604 5603 5603 5604 5604 5605 5607 5609 5610 5613 5615
5673 5672 5670 5669 5667 5665 5663 5660 5658 5655 5653 5650 5647 5644 5641 5637 5634 5631 5627 5623 5620 5617 5614 5609 5605 5601 5598 5595 5592 5590 5588 5586 5585 5584 5583 5584 5584 5585 5587 5588 5590 5592 5595 5597
5657 5656 5654 5652 5650 5648 5646 5644 5641 5639 5636 5632 5629 5626 5623 5619 5615 5612 5608 5605 5601 5596 5593 5589 5585 5582 5578 5575 5572 5570 5568 5566 5565 5564 5564 5564 5565 5566 5568 5569 5571 5574 5576 5580
5641 5639 5637 5636 5634 5632 5629 5627 5624 5622 5619 5615 5611 5608 5605 5601 5597 5593 5589 5586 5583 5577 5573 5569 5566 5562 5559 5556 5553 5551 5549 5547 5546 5546 5546 5546 5547 5548 5550 5552 5554 5556 5559 5563
5624 5623 5621 5619 5617 5615 5612 5610 5607 5604 5600 5597 5593 5590 5586 5583 5579 5575 5571 5566 5562 5558 5554 5551 5547 5544 5541 5538 5535 5533 5531 5529 5528 5528 5528 5528 5529 5530 5533 5535 5537 5540 5543 5546
5608 5606 5604 5602 5601 5598 5596 5593 5589 5586 5583 5579 5576 5572 5568 5564 5560 5557 5554 5549 5544 5540 5537 5533 5530 5526 5523 5521 5518 5516 5514 5513 5512 5512 5511 5512 5512 5514 5516 5519 5521 5524 5527 5531
5590 5589 5587 5585 5583 5581 5579 5576 5572 5569 5565 5562 5558 5554 5550 5546 5543 5539 5534 5531 5527 5523 5520 5517 5513 5510 5507 5504 5502 5500 5499 5498 5497 5496 5496 5496 5497 5499 5501 5503 5506 5509 5512 5515
5574 5572 5570 5568 5566 5564 5561 5559 5556 5552 5549 5545 5542 5537 5533 5529 5526 5523 5519 5515 5511 5508 5504 5501 5497 5494 5491 5489 5487 5485 5484 5483 5482 5482 5482 5482 5483 5484 5487 5489 5492 5495 5498 5501
5557 5556 5554 5551 5549 5547 5544 5541 5539 5535 5532 5529 5526 5522 5518 5515 5511 5507 5504 5501 5497 5493 5490 5486 5483 5480 5477 5474 5473 5471 5470 5469 5468 5468 5468 5469 5469 5471 5473 5476 5478 5481 5484 5488
5541 5539 5537 5536 5533 5530 5528 5525 5523 5520 5516 5513 5510 5507 5504 5500 5497 5493 5490 5487 5484 5480 5477 5473 5470 5467 5465 5462 5460 5459 5458 5457 5456 5456 5456 5456 5457 5459 5461 5464 5466 5469 5472 5475